sat.trackr.live / text

‹ back to catalog

COSMOS 2534 (758)

NORAD 44299 · 2019-030A

PAYLOAD ACTIVE UNKNOWN

§ Identity

Operator
Country
CIS
Launch date
2019-05-27
Launch site
PLMSC
Launch vehicle
Mass (kg)
RCS (m²)

Purposes: nav

External: N2YO · Heavens-Above · Gunter

§ Orbital elements

Epoch: 2026-09-19T13:41:08.149344Z

Period
675.73 min
Inclination
64.3695°
Eccentricity
0.0011586
Mean motion
2.13102458 rev/d
Perigee alt
19,100.3 km
Apogee alt
19,159.4 km
Semi-major
25,508.0 km
B*
0.0000e+0
RAAN
189.4408°
Arg perigee
276.2227°
Mean anomaly
270.4820°
Rev number
5,693

§ Raw data

COSMOS 2534 (758)1 44299U 19030A   26262.57023321 -.00000010  00000+0  00000+0 0  99922 44299  64.3695 189.4408 0011586 276.2227 270.4820  2.13102458 56938

JSON: /api/v1/satellites/44299 · /tle

For live sub-satellite position, see the globe view (requires WebGL).

§ Visibility from observer

Set your observer location to see the next 7 days of passes ≥ 10°. The values pass through the URL so the page stays shareable.

No JS? Fill the form by hand. The geolocation button needs JavaScript.